Location: Cerda�ola
(41.4919°N, 2.1403°E)
Time: 02:34:14
(UTC+00:00)

Cosmos 1470 - Pass Details

Date: 29 March 2020
Orbit: 521 x 543 km, 82.5° (Epoch: 31 May)

Event Time Altitude Azimuth Distance (km) Brightness Sun altitude
Rises 19:35:18 0° 182° (S) 2,633 6.1 -15.7°
Reaches altitude 10° 19:37:25 10° 181° (S) 1,752 5.2 -16.0°
Maximum altitude 19:41:15 75° 96° (E) 547 2.6 -16.7°
Drops below altitude 10° 19:45:08 10° 11° (NNE) 1,776 5.5 -17.4°
Sets 19:47:18 0° 10° (N) 2,674 6.5 -17.8°
